Showing default

ORBCOMM FM 14, 25419

Orbit data source: Space-Track

ORBCOMM FM 14, 25419 is a payload satellite owned by Orbcomm (US) in LEO that was launched on Sun, 02 Aug 1998 UTC via a PEGASUS XL/HAPS launch vehicle from the Pegasus Launch, Eastern Range Air Space (ERAS). Payload-class satellites include a variety of spacecraft equipped with specific instruments for various scientific and technological missions. These include communications satellites like Starlink; space stations such as the ISS; scientific satellites like the Hubble; Earth observation satellites from companies like Planet Labs, Umbra, and HawkEye 360; GPS; miniature CubeSats for education and research; and military/defense satellites.

Loading next visibility...
Identifier
25419, 1998-046G
Orbit
LEO
Country
Flag of USUS / ORB
Related business
Manufacturer
OSC-Germantown
Mission
Non-operational Commercial Communications
Bus & Motor
MICROSTAR, Unknown motor
Mass
42 kg wet, 42 kg dry
Launch date (UTC)
1998-08-02 (28 years ago)
Launch vehicle
PEGASUS XL/HAPS
Launch site
Pegasus Launch, Eastern Range Air Space (ERAS)
Object type
Payload
Rocket body
Debris
Shape & HBR
Cyl + 2 Pan, 4.2 m
Radar Cross Section
1.484 m², Medium (>0.1 m² and < 1m²)

Expand to show TLE details & history
Last TLE update: 19 hours ago

TLE from 19 hours ago
0 ORBCOMM FM 14
1 25419U 98046G   26265.25867930  .00000591  00000-0  22960-3 0  9996
2 25419  44.9941 139.1998 0003512  78.0097 282.1146 14.40299721470808
Epoch: 2026-09-22T06:12Z
TLE epoch observation values (Epoch: 2026-09-22T06:12:29.891Z)
Latitude
0.00001°
Longitude
44.94854°
Altitude
756.981 km
Speed
7.478 km/s
True Right ascension
09h 16m 47s
True Declination
0° 00' 00"
Sunlit
Object was in daylight at epoch
Visualization orbit readout
Latitude
Unknown
Longitude
Unknown
Altitude
Unknown
Speed
Unknown
Apparent Right ascension
Unknown
Apparent Declination
Unknown
Sunlit
N/A
Visualization observer readout
Local Sidereal Time
18:10:02
Azimuth
Unknown
Elevation
Unknown
Doppler factor
Unknown
Orbital elements
Apogee altitude
761.564 km
Perigee altitude
756.55 km
Semi-major axis
7,137.194 km
Eccentricity
0.00035
Inclination
44.9941°
RAAN
139.1998°
Arg. of periapsis
78.0097°
True anomaly
282.07525°
Mean anomaly
282.1146°
Eccentric anomaly
282.09492°
Mean motion
3.59958 °/min
Orbital period
100.01 mins
BSTAR
0.0002296
Loading maneuver chart data...
Computing Atmospheric mass density...

Documentation

Showing up to 5 results
|